Total_Precipitation_Accumulation
0.38 0.30 0.26 0.09 0.09 0.07 0.08 0.04 0.02 0.03 0.03 0.04 0.04 0.05 0.11 0.14 0.11 0.09 0.09 0.06 0.05 0.03 0.03 0.06 0.08 0.08 0.07 0.08 0.07 0.08 0.09 0.08 0.10 0.15 0.29 0.25 0.12 0.13 0.13 0.19 0.14 0.24 0.43
0.87 0.59 0.65 0.26 0.08 0.05 0.07 0.07 0.10 0.04 0.05 0.08 0.04 0.06 0.11 0.14 0.06 0.06 0.08 0.17 0.17 0.14 0.08 0.04 0.06 0.12 0.16 0.15 0.13 0.12 0.10 0.06 0.05 0.07 0.18 0.29 0.21 0.12 0.10 0.09 0.13 0.17 0.22
1.19 1.00 0.80 0.68 0.22 0.14 0.32 0.11 0.04 0.04 0.04 0.02 0.02 0.02 0.07 0.05 0.01 0.05 0.18 0.17 0.19 0.12 0.06 0.07 0.16 0.34 0.31 0.23 0.17 0.16 0.09 0.07 0.05 0.05 0.09 0.11 0.26 0.29 0.15 0.11 0.16 0.24 0.18
0.95 1.22 0.91 1.05 1.11 0.52 0.42 0.21 0.14 0.07 0.02 0.01 0.11 0.10 0.05 0.03 0.04 0.03 0.08 0.12 0.08 0.06 0.05 0.09 0.17 0.97 0.73 0.63 0.33 0.15 0.07 0.06 0.04 0.03 0.02 0.08 0.27 0.55 0.35 0.13 0.16 0.18 0.17
0.93 0.58 0.94 1.10 0.97 0.77 0.44 0.26 0.40 0.45 0.31 0.07 0.06 0.10 0.13 0.08 0.08 0.09 0.16 0.06 0.12 0.13 0.13 0.14 0.13 0.69 1.04 0.79 0.45 0.20 0.11 0.10 0.05 0.04 0.04 0.04 0.16 0.67 0.60 0.24 0.16 0.17 0.15
1.21 1.41 2.04 1.78 1.51 0.84 0.62 0.82 1.07 1.05 0.79 0.49 0.39 0.59 0.67 0.65 0.52 0.46 0.27 0.12 0.12 0.10 0.09 0.12 0.11 0.18 0.27 0.53 0.50 0.52 0.25 0.11 0.13 0.08 0.04 0.04 0.06 0.31 0.33 0.19 0.12 0.16 0.14
2.60 2.46 3.18 4.31 3.80 2.88 1.90 1.41 1.43 1.64 1.32 1.21 1.52 1.63 1.55 1.37 0.98 0.50 0.22 0.12 0.08 0.08 0.13 0.12 0.05 0.10 0.32 0.14 0.09 0.20 0.15 0.06 0.09 0.07 0.08 0.27 0.57 0.52 0.29 0.26 0.17 0.12 0.13
6.22 5.28 5.61 6.69 5.82 4.58 3.52 2.31 2.32 2.14 1.88 1.89 1.58 2.03 2.42 1.11 1.00 0.71 0.34 0.18 0.10 0.09 0.18 0.14 0.03 0.01 0.14 0.08 0.02 0.03 0.05 0.07 0.10 0.09 0.24 0.24 0.29 0.19 0.29 0.30 0.18 0.10 0.10
4.44 5.85 6.89 7.53 8.33 7.50 4.24 3.28 3.30 3.37 2.92 2.39 2.14 1.92 2.11 1.44 1.22 0.92 0.36 0.23 0.15 0.08 0.14 0.16 0.05 0.01 0.01 0.01 0.01 0.02 0.03 0.03 0.14 0.21 0.21 0.15 0.12 0.17 0.38 0.33 0.21 0.15 0.10
2.47 3.24 3.59 3.72 7.19 11.78 7.98 5.02 4.13 3.79 3.59 2.59 2.38 1.74 1.20 1.42 1.48 1.36 0.54 0.23 0.14 0.09 0.09 0.15 0.05 0.06 0.03 0.01 0.00 0.00 0.00 0.00 0.01 0.06 0.07 0.11 0.10 0.14 0.35 0.42 0.31 0.21 0.14
2.72 2.37 1.88 2.59 3.36 5.95 9.66 6.51 5.16 4.19 2.77 2.60 2.22 1.61 1.07 0.87 0.84 0.80 0.47 0.28 0.15 0.04 0.03 0.03 0.02 0.03 0.01 0.00 0.00 0.00 0.00 0.00 0.00 0.00 0.00 0.01 0.02 0.04 0.12 0.20 0.20 0.27 0.26
1.93 2.26 1.84 1.27 1.32 1.96 4.35 4.17 4.50 4.55 2.69 2.15 1.77 1.26 1.07 0.85 0.49 0.37 0.26 0.20 0.22 0.04 0.00 0.01 0.00 0.00 0.00 0.00 0.00 0.00 0.00 0.00 0.00 0.00 0.00 0.01 0.02 0.02 0.05 0.16 0.15 0.17 0.22
1.33 1.64 1.27 1.16 0.93 1.08 2.16 1.84 2.29 3.06 3.33 2.26 1.92 1.17 1.14 0.75 0.39 0.37 0.20 0.20 0.32 0.18 0.02 0.03 0.00 0.00 0.00 0.00 0.00 0.00 0.00 0.00 0.00 0.00 0.00 0.00 0.02 0.03 0.07 0.11 0.16 0.20 0.19
0.70 0.89 0.91 0.51 0.66 0.99 0.96 1.13 1.41 1.42 3.05 2.81 2.15 1.56 1.23 0.78 0.30 0.24 0.13 0.06 0.06 0.14 0.05 0.02 0.00 0.00 0.00 0.00 0.00 0.01 0.00 0.00 0.00 0.00 0.00 0.00 0.00 0.01 0.03 0.06 0.13 0.22 0.25
0.73 0.82 0.81 0.67 0.64 0.58 0.38 0.48 1.14 0.95 1.72 2.76 2.17 1.68 1.21 0.63 0.26 0.11 0.05 0.04 0.02 0.03 0.04 0.03 0.00 0.00 0.00 0.00 0.00 0.00 0.00 0.00 0.00 0.00 0.00 0.00 0.00 0.00 0.00 0.02 0.04 0.15 0.29
0.72 0.90 0.66 0.63 0.65 0.53 0.38 0.37 0.83 0.85 0.97 2.07 1.68 1.17 1.25 0.50 0.14 0.13 0.10 0.03 0.03 0.04 0.03 0.01 0.00 0.00 0.00 0.00 0.00 0.00 0.00 0.00 0.00 0.00 0.00 0.00 0.00 0.00 0.00 0.00 0.01 0.05 0.17
0.53 0.60 0.47 0.69 0.73 0.69 0.47 0.54 0.73 0.83 0.85 1.31 1.11 1.09 1.27 0.56 0.27 0.18 0.13 0.09 0.02 0.01 0.01 0.00 0.00 0.00 0.00 0.00 0.00 0.00 0.00 0.00 0.00 0.00 0.00 0.00 0.00 0.00 0.00 0.00 0.00 0.00 0.02
0.20 0.44 0.64 0.86 1.18 1.11 0.46 0.58 0.67 0.72 0.78 1.02 0.86 0.98 1.37 0.68 0.33 0.15 0.08 0.06 0.05 0.02 0.00 0.00 0.00 0.00 0.00 0.00 0.00 0.00 0.00 0.00 0.00 0.00 0.00 0.01 0.02 0.01 0.01 0.01 0.01 0.01 0.01
0.18 0.30 0.59 0.92 1.09 1.33 1.20 1.45 1.21 0.84 0.74 0.81 0.67 0.81 1.43 0.93 0.59 0.17 0.06 0.01 0.02 0.03 0.00 0.00 0.00 0.00 0.00 0.00 0.00 0.00 0.00 0.00 0.00 0.00 0.00 0.00 0.01 0.02 0.04 0.06 0.05 0.03 0.03
0.07 0.29 0.67 1.07 1.58 2.74 1.92 1.10 0.62 0.60 0.64 0.68 0.75 0.72 1.30 0.82 0.71 0.60 0.19 0.04 0.06 0.03 0.00 0.00 0.00 0.00 0.00 0.00 0.00 0.00 0.00 0.00 0.00 0.00 0.00 0.00 0.01 0.01 0.01 0.03 0.05 0.07 0.05
0.16 0.49 0.75 0.83 0.94 0.82 0.38 0.34 0.35 0.47 0.65 0.74 0.85 0.62 1.17 0.96 0.55 0.67 0.60 0.16 0.07 0.02 0.00 0.00 0.00 0.00 0.00 0.00 0.00 0.00 0.00 0.00 0.00 0.00 0.00 0.00 0.01 0.01 0.03 0.04 0.05 0.06 0.10
0.33 0.37 0.23 0.09 0.06 0.10 0.11 0.15 0.16 0.20 0.42 0.48 1.07 0.76 0.79 0.87 0.32 0.32 0.28 0.20 0.14 0.03 0.01 0.00 0.00 0.00 0.00 0.00 0.00 0.01 0.00 0.00 0.00 0.00 0.00 0.01 0.01 0.03 0.06 0.10 0.09 0.11 0.15
0.04 0.10 0.05 0.04 0.03 0.03 0.05 0.09 0.16 0.11 0.18 0.33 1.02 1.09 0.74 0.71 0.45 0.23 0.16 0.11 0.15 0.04 0.01 0.00 0.00 0.00 0.00 0.00 0.00 0.01 0.05 0.06 0.05 0.00 0.00 0.03 0.03 0.02 0.01 0.03 0.08 0.13 0.11
0.06 0.03 0.06 0.10 0.05 0.05 0.02 0.04 0.06 0.09 0.11 0.19 0.42 0.66 0.75 0.56 0.51 0.30 0.21 0.12 0.11 0.04 0.03 0.02 0.02 0.02 0.02 0.02 0.01 0.00 0.03 0.05 0.15 0.13 0.04 0.00 0.01 0.03 0.04 0.08 0.10 0.14 0.17
0.04 0.06 0.10 0.09 0.11 0.12 0.07 0.08 0.09 0.09 0.17 0.19 0.30 0.61 0.68 0.71 0.62 0.50 0.33 0.24 0.13 0.11 0.11 0.10 0.06 0.08 0.09 0.08 0.08 0.05 0.04 0.02 0.04 0.10 0.12 0.06 0.05 0.03 0.02 0.04 0.06 0.09 0.16
0.03 0.03 0.07 0.12 0.16 0.19 0.18 0.14 0.18 0.23 0.17 0.14 0.23 0.64 0.74 0.73 0.74 0.62 0.46 0.35 0.21 0.19 0.22 0.25 0.23 0.16 0.11 0.11 0.14 0.19 0.22 0.25 0.27 0.35 0.34 0.20 0.18 0.12 0.04 0.04 0.04 0.04 0.08